Regional Weather Roundup
Issued by NWS Newport/Morehead, NC

Current Version | Previous Version | Graphics & Text | Print | Product List | Glossary On
Versions: 1 2 3 4 5 6 7 8 9 10 11 12 13 14 15 16 17 18 19 20 21 22 23 24 25 26 27 28 29 30 31 32 33 34 35 36 37 38 39 40 41 42 43 44 45 46 47 48 49 50
049 ASUS42 KMHX 210813 RWRMHX WEATHER ROUNDUP FOR EASTERN NORTH CAROLINA NATIONAL WEATHER SERVICE NEWPORT/MOREHEAD CITY NC 300 AM EST TUE NOV 21 2017 NOTE: "FAIR" INDICATES FEW OR NO CLOUDS BELOW 12,000 FEET WITH NO SIGNIFICANT WEATHER AND/OR OBSTRUCTIONS TO VISIBILITY NCZ015>017-031-032-045>047-102-103-210900- NORTH COAST CITY SKY/WX TMP DP RH WIND PRES REMARKS EDENTON PTCLDY 38 36 92 CALM 30.27F ELIZABETH CITY CLEAR 37 36 96 S3 30.27F KITTY HAWK SUNNY 45 39 79 CALM 30.26S MANTEO CLEAR 36 35 99 CALM 30.28S FOG $$ NCZ045>047-081-094-103-104-210900- CENTRAL COAST CITY SKY/WX TMP DP RH WIND PRES REMARKS FRISCO CLEAR 41 41 100 N3 30.26F $$ NCZ095-097-098-100-101-210900- SOUTHERN COAST CITY SKY/WX TMP DP RH WIND PRES REMARKS BEAUFORT CLEAR 38 35 89 CALM 30.25F CEDAR ISLAND NOT AVBL JACKSONVILLE CLEAR 34 34 100 CALM 30.25S PINEY ISLAND NOT AVBL WILMINGTON PTCLDY 36 35 96 CALM 30.24F $$ NCZ011>013-027>030-043-044-078>080-089-090>093-098-210900- COASTAL PLAIN CITY SKY/WX TMP DP RH WIND PRES REMARKS AHOSKIE CLEAR 31 30 96 CALM 30.25F CLINTON CLEAR 32 32 99 CALM 30.26S ELIZABETHTOWN NOT AVBL GOLDSBORO CLOUDY 32 29 88 CALM 30.24S GREENVILLE CLOUDY 34 32 93 CALM 30.26F HAVELOCK NOT AVBL KENANSVILLE CLEAR 28 27 93 CALM 30.26S FOG KINSTON CLEAR 31 30 96 CALM 30.26F NEW BERN CLOUDY 33 33 100 CALM 30.27S RICHLANDS CLEAR 29 28 96 CALM 30.26S ROCKY MOUNT CLEAR 31 31 100 CALM 30.25S WASHINGTON CLOUDY 34 32 93 CALM 30.27S WHITEVILLE CLEAR 35 34 96 CALM 30.24S $$ AMZ130-135-150-152-154-156-158-170-250-252-270-ANZ085-086-088-633-658-670-210900- MARINE OBSERVATIONS STATION/POSITION TIME TEMP WIND PRES WAVE SWELL AIR SEA DIR/SP/G HT/PER HT/PER (UTC) (F) (DEG/KT/KT) (MB) (FT/S) (FT/S) CHESAPEAKE LIGHT NOT AVBL 64 E VA BEACH 0750 56 60 230/ 12/ 16 1025.2 2/ 6 2/ 6 DUCK 0748 49 59 200/ 5/ 6 1024.4 2 E DUCK 0800 61 N/A 1/ 7 OREGON INLET 0742 47 53 290/ 1/ 1 1024.8 13E OREGON INLT 0748 62 N/A 2/ 6 2/ 6 HATTERAS CG 0748 51 58 20/ 3/ 3 1024.3 DIAMOND BUOY 0800 60 75 330/ 6/ 8 1024.7 CAPE LOOKOUT 0800 360/ 6/ 6 1024.4 BEAUFORT LAB 0748 44 59 10/ 4/ 4 1024.3 30 SE NEW RVR IN 0708 63 67 120/ 4/ 6 1024.2 30 SE NEW RVR IN 0800 67 N/A 2/ 8 27 SE WRIGHTSVLE 0708 63 68 170/ 4/ 8 1023.5 5 SE WRIGHTSVLE 0708 61 63 180/ 4/ 8 1023.9 225 S CAPE HAT 0750 69 76 100/ 14/ 19 1022.7 5/ 9 3/ 9 41 SE CHARLESTON 0800 69 73 150/ 12/ 16 1021.2 $$

USA.gov is the U.S. government's official web portal to all federal, state and local government web resources and services.